Regional Weather Roundup
Issued by NWS

Home | Current Version | Previous Version | Graphics & Text | Print | Product List | Glossary On
Versions: 1 2 3 4 5 6 7 8 9 10 11 12 13 14 15 16 17 18 19 20 21 22 23 24 25 26 27 28 29 30 31 32 33 34 35 36 37 38 39 40 41 42 43 44 45 46 47 48 49 50
000
ASUS43 KLSX 261359
RWRMO

WEATHER SUMMARY FOR MISSOURI
NATIONAL WEATHER SERVICE SPRINGFIELD MO
800 AM CST MON JAN 26 2015

NOTE: "FAIR" INDICATES FEW OR NO CLOUDS BELOW 12,000 FEET WITH NO
       SIGNIFICANT WEATHER AND/OR OBSTRUCTIONS TO VISIBILITY.
       CURRENT SKY AND/OR WEATHER CONDITIONS ARE NOT AVAILABLE FOR
       CHILLICOTHE AND FARMINGTON.

MOZ001>031-035>038-043-044-053-054-261500-
...NORTHERN AND WESTERN MISSOURI...

CITY           SKY/WX    TMP DP  RH WIND       PRES   REMARKS
KANSAS CTY INT PTCLDY    29  27  92 SW8       29.99F WCI  21
KANSAS C DTWN  CLEAR     30  27  88 S3        30.01F
LEE`S SUMMIT   CLEAR     29  26  89 SW7       30.02F WCI  22
ST JOSEPH      CLEAR     25  23  92 S7        29.97F WCI  17
CHILLICOTHE      N/A     28  25  88 S6        30.00F WCI  22
KIRKSVILLE     CLOUDY    31  29  92 SW8       29.97F WCI  23

$$
MOZ066>068-077>081-088>096-101>105-261500-
...SOUTHWEST MISSOURI...

CITY           SKY/WX    TMP DP  RH WIND       PRES   REMARKS
SPRINGFIELD    CLEAR     28  25  88 S6        30.07S WCI  22
JOPLIN         CLEAR     29  27  92 SW8       30.10S WCI  21

$$
MOZ032>034-039>042-045>050-055>058-069>072-261500-
...CENTRAL MISSOURI...

CITY           SKY/WX    TMP DP  RH WIND       PRES   REMARKS
COLUMBIA       CLOUDY    30  28  92 SW6       30.04F WCI  24
JEFFERSON CITY CLOUDY    32  28  85 CALM      30.07F
ROLLA          CLOUDY    30  26  85 SW7       30.01F WCI  23
SEDALIA        CLEAR     29  26  89 SW8       30.05F WCI  21
OSAGE BEACH    CLOUDY    30  27  86 S6        30.04F WCI  24

$$
MOZ051-052-059>065-261500-
...EAST CENTRAL MISSOURI...

CITY           SKY/WX    TMP DP  RH WIND       PRES   REMARKS
ST LOUIS INTL  CLOUDY    29  21  72 W9        30.05F WCI  20
SPIRIT OF STL  MOCLDY    28  23  81 W5        30.05F WCI  23
ST CHARLES     CLOUDY    27  22  81 W7        30.04F WCI  19

$$
MOZ072>076-082>087-097>100-106>115-261500-
...SOUTH CENTRAL AND SOUTHEAST MISSOURI...

CITY           SKY/WX    TMP DP  RH WIND       PRES   REMARKS
CAPE GIRARDEAU PTCLDY    30  27  88 NW5       30.07R WCI  25
FARMINGTON     MOCLDY    27  23  86 MISG      30.08R
POPLAR BLUFF   CLOUDY    33  25  72 NW5       30.08R WCI  29
WEST PLAINS    CLOUDY    32  26  78 NW10G18   30.08R WCI  24

$$



USA.gov is the U.S. government's official web portal to all federal, state and local government web resources and services.